TAM3125 SBLO-SBSP

Flight info

Callsign TAM3125
Flight time N/A
Altitude 31000
Route AKTIT DCT IMTBI DCT UTLOT
Aircraft A320/M-SDE3FGHIRWY/LB1

Departure

Time 2026-04-23 23:00
Airport Governor José Richa Airport (SBLO)

Arrival

Time N/A
Airport Congonhas–Deputado Freitas Nobre Airport (SBSP)
Time Latitude Longitude Altitude Speed Heading
2026-04-23 22:28 -23.32906 -51.13802 1868 ft 0 kts 110°
2026-04-23 22:48 -23.32907 -51.13799 1868 ft 0 kts 112°
2026-04-23 22:48 -23.32915 -51.13789 1868 ft 2 kts 141°
2026-04-23 22:48 -23.32935 -51.13780 1868 ft 3 kts 168°
2026-04-23 22:49 -23.32965 -51.13776 1868 ft 3 kts 161°
2026-04-23 22:49 -23.32978 -51.13741 1868 ft 6 kts 99°
2026-04-23 22:49 -23.32985 -51.13701 1867 ft 3 kts 111°
2026-04-23 22:49 -23.33010 -51.13683 1867 ft 5 kts 176°
2026-04-23 22:50 -23.33030 -51.13687 1867 ft 2 kts 197°
2026-04-23 22:50 -23.33048 -51.13693 1867 ft 3 kts 197°
2026-04-23 22:50 -23.33075 -51.13701 1867 ft 4 kts 192°
2026-04-23 22:50 -23.33104 -51.13719 1867 ft 5 kts 229°
2026-04-23 22:51 -23.33108 -51.13759 1868 ft 5 kts 286°
2026-04-23 22:51 -23.33091 -51.13802 1868 ft 6 kts 290°
2026-04-23 22:51 -23.33079 -51.13850 1868 ft 6 kts 292°
2026-04-23 22:51 -23.33060 -51.13876 1869 ft 4 kts 301°
2026-04-23 22:52 -23.33045 -51.13905 1869 ft 2 kts 255°
2026-04-23 22:52 -23.33068 -51.13893 1869 ft 5 kts 120°
2026-04-23 22:52 -23.33071 -51.13886 1869 ft 0 kts 110°
2026-04-23 22:59 -23.33171 -51.13575 1866 ft 82 kts 109°
2026-04-23 23:00 -23.33451 -51.12729 1839 ft 153 kts 111°
2026-04-23 23:00 -23.33840 -51.11481 2073 ft 187 kts 105°
2026-04-23 23:00 -23.34118 -51.10021 2608 ft 210 kts 94°
2026-04-23 23:00 -23.34037 -51.08419 3478 ft 215 kts 69°
2026-04-23 23:01 -23.33209 -51.07137 4358 ft 218 kts 39°
2026-04-23 23:01 -23.31874 -51.06246 4925 ft 236 kts 35°
2026-04-23 23:01 -23.30542 -51.05100 5473 ft 252 kts 46°
2026-04-23 23:01 -23.29368 -51.03649 6128 ft 263 kts 54°
2026-04-23 23:02 -23.28322 -51.02020 7001 ft 266 kts 58°
2026-04-23 23:02 -23.27361 -51.00299 7863 ft 269 kts 60°
2026-04-23 23:02 -23.26458 -50.98536 8650 ft 274 kts 62°
2026-04-23 23:02 -23.25565 -50.96696 9420 ft 279 kts 62°
2026-04-23 23:03 -23.24678 -50.94807 10178 ft 283 kts 63°
2026-04-23 23:03 -23.23794 -50.92885 10722 ft 295 kts 63°
2026-04-23 23:03 -23.22854 -50.90816 11114 ft 311 kts 63°
2026-04-23 23:03 -23.21898 -50.88694 11701 ft 319 kts 63°
2026-04-23 23:04 -23.20917 -50.86505 12386 ft 323 kts 63°
2026-04-23 23:04 -23.19939 -50.84320 13055 ft 326 kts 63°
2026-04-23 23:04 -23.18952 -50.82114 13702 ft 329 kts 63°
2026-04-23 23:04 -23.17941 -50.79853 14321 ft 334 kts 63°
2026-04-23 23:05 -23.16921 -50.77574 14910 ft 338 kts 63°
2026-04-23 23:05 -23.15896 -50.75283 15493 ft 342 kts 63°
2026-04-23 23:05 -23.14856 -50.72959 16054 ft 346 kts 62°
2026-04-23 23:05 -23.13797 -50.70594 16620 ft 350 kts 63°
2026-04-23 23:06 -23.12741 -50.68237 17163 ft 353 kts 62°
2026-04-23 23:06 -23.11661 -50.65828 17687 ft 357 kts 62°
2026-04-23 23:06 -23.10559 -50.63370 18197 ft 361 kts 62°
2026-04-23 23:06 -23.09462 -50.60924 18693 ft 365 kts 62°
2026-04-23 23:07 -23.08716 -50.59261 19020 ft 368 kts 62°
2026-04-23 23:07 -23.07222 -50.55932 19649 ft 373 kts 62°
2026-04-23 23:07 -23.06086 -50.53403 20097 ft 378 kts 62°
2026-04-23 23:07 -23.04925 -50.50820 20541 ft 382 kts 62°
2026-04-23 23:08 -23.04150 -50.49100 20846 ft 385 kts 62°
2026-04-23 23:08 -23.02668 -50.45547 21445 ft 391 kts 65°
2026-04-23 23:08 -23.01654 -50.42798 21895 ft 395 kts 66°
2026-04-23 23:08 -23.00636 -50.39999 22332 ft 399 kts 66°
2026-04-23 23:09 -22.99968 -50.38162 22619 ft 402 kts 66°
2026-04-23 23:09 -22.98585 -50.34361 23225 ft 407 kts 66°
2026-04-23 23:09 -22.97886 -50.32445 23522 ft 410 kts 66°
2026-04-23 23:09 -22.96491 -50.28621 24110 ft 414 kts 66°
2026-04-23 23:10 -22.95774 -50.26657 24399 ft 417 kts 66°
2026-04-23 23:10 -22.94357 -50.22778 24963 ft 422 kts 66°
2026-04-23 23:10 -22.93267 -50.19795 25441 ft 424 kts 66°
2026-04-23 23:10 -22.92179 -50.16819 25998 ft 423 kts 66°
2026-04-23 23:11 -22.91106 -50.13886 26586 ft 422 kts 66°
2026-04-23 23:11 -22.90030 -50.10949 27161 ft 421 kts 66°
2026-04-23 23:11 -22.88952 -50.08011 27693 ft 420 kts 66°
2026-04-23 23:11 -22.87867 -50.05050 28216 ft 420 kts 66°
2026-04-23 23:12 -22.86799 -50.02142 28709 ft 420 kts 66°
2026-04-23 23:12 -22.85722 -49.99210 29225 ft 419 kts 66°
2026-04-23 23:12 -22.84650 -49.96298 29705 ft 419 kts 66°
2026-04-23 23:12 -22.83557 -49.93332 30107 ft 421 kts 66°
2026-04-23 23:13 -22.82483 -49.90415 30464 ft 424 kts 67°
2026-04-23 23:13 -22.81387 -49.87442 30825 ft 426 kts 67°
2026-04-23 23:13 -22.80278 -49.84434 31100 ft 429 kts 67°
2026-04-23 23:14 -22.78076 -49.78458 31111 ft 430 kts 67°
2026-04-23 23:14 -22.75843 -49.72411 31111 ft 431 kts 67°
2026-04-23 23:15 -22.73627 -49.66416 31112 ft 430 kts 67°
2026-04-23 23:15 -22.71398 -49.60395 31113 ft 430 kts 67°
2026-04-23 23:16 -22.69179 -49.54417 31116 ft 430 kts 67°
2026-04-23 23:16 -22.66960 -49.48442 31117 ft 430 kts 67°
2026-04-23 23:17 -22.64723 -49.42422 31117 ft 430 kts 67°
2026-04-23 23:17 -22.62492 -49.36421 31119 ft 431 kts 67°
2026-04-23 23:18 -22.60267 -49.30451 31118 ft 430 kts 66°
2026-04-23 23:18 -22.58117 -49.24432 31117 ft 430 kts 71°
2026-04-23 23:19 -22.56674 -49.18137 31116 ft 430 kts 80°
2026-04-23 23:19 -22.56071 -49.11737 31119 ft 430 kts 86°
2026-04-23 23:20 -22.55733 -49.06337 31119 ft 430 kts 86°
2026-04-23 23:20 -22.55246 -48.98861 31118 ft 430 kts 86°
2026-04-23 23:21 -22.54808 -48.92403 31116 ft 430 kts 86°
2026-04-23 23:21 -22.54439 -48.87029 31116 ft 431 kts 86°
2026-04-23 23:22 -22.53920 -48.79533 31117 ft 431 kts 86°
2026-04-23 23:22 -22.53469 -48.73079 31118 ft 431 kts 86°
2026-04-23 23:23 -22.53015 -48.66623 31121 ft 431 kts 86°
2026-04-23 23:23 -22.52562 -48.60192 31120 ft 431 kts 86°
2026-04-23 23:24 -22.52105 -48.53744 31112 ft 431 kts 86°
2026-04-23 23:24 -22.51644 -48.47295 31115 ft 432 kts 86°
2026-04-23 23:25 -22.51180 -48.40829 31114 ft 431 kts 86°
2026-04-23 23:25 -22.50714 -48.34365 31116 ft 431 kts 86°
2026-04-23 23:26 -22.50248 -48.27947 31118 ft 431 kts 86°
2026-04-23 23:26 -22.49777 -48.21504 31123 ft 431 kts 86°
2026-04-23 23:27 -22.49301 -48.15013 31132 ft 432 kts 86°
2026-04-23 23:27 -22.48924 -48.09877 31144 ft 432 kts 86°
2026-04-23 23:28 -22.48449 -48.03448 31157 ft 431 kts 86°
2026-04-23 23:28 -22.47967 -47.96984 31171 ft 431 kts 86°
2026-04-23 23:29 -22.48040 -47.90583 31157 ft 428 kts 103°
2026-04-23 23:29 -22.48862 -47.87494 31154 ft 424 kts 115°
2026-04-23 23:29 -22.50175 -47.84686 31150 ft 420 kts 126°
2026-04-23 23:30 -22.53506 -47.79514 31146 ft 419 kts 129°
2026-04-23 23:30 -22.56863 -47.74394 31138 ft 419 kts 128°
2026-04-23 23:31 -22.60202 -47.69207 31131 ft 419 kts 128°
2026-04-23 23:31 -22.63515 -47.64024 31127 ft 419 kts 128°
2026-04-23 23:32 -22.66839 -47.58814 31127 ft 420 kts 128°
2026-04-23 23:32 -22.70145 -47.53627 31131 ft 420 kts 128°
2026-04-23 23:33 -22.73455 -47.48432 31131 ft 420 kts 128°
2026-04-23 23:33 -22.76768 -47.43224 31131 ft 420 kts 128°
2026-04-23 23:34 -22.80072 -47.38024 31136 ft 420 kts 128°
2026-04-23 23:34 -22.83382 -47.32818 31139 ft 420 kts 128°
2026-04-23 23:35 -22.86640 -47.27683 31144 ft 420 kts 128°
2026-04-23 23:35 -22.89999 -47.22382 31150 ft 420 kts 128°
2026-04-23 23:36 -22.93737 -47.17635 31130 ft 408 kts 154°
2026-04-23 23:36 -22.96330 -47.16518 31161 ft 397 kts 173°
2026-04-23 23:36 -22.99019 -47.16023 31170 ft 395 kts 176°
2026-04-23 23:37 -23.04490 -47.15070 31171 ft 397 kts 174°
2026-04-23 23:37 -23.09904 -47.13918 31173 ft 397 kts 173°
2026-04-23 23:38 -23.15318 -47.12729 31181 ft 397 kts 173°
2026-04-23 23:38 -23.20775 -47.11526 31177 ft 397 kts 173°
2026-04-23 23:39 -23.26203 -47.10329 31184 ft 397 kts 173°
2026-04-23 23:39 -23.31629 -47.09141 31189 ft 397 kts 174°
2026-04-23 23:40 -23.37040 -47.07956 31190 ft 397 kts 174°
2026-04-23 23:40 -23.42406 -47.06414 31177 ft 409 kts 155°
2026-04-23 23:40 -23.44609 -47.04419 31193 ft 424 kts 131°
2026-04-23 23:41 -23.46004 -47.01556 31199 ft 433 kts 108°
2026-04-23 23:41 -23.46357 -46.98313 31218 ft 437 kts 90°
2026-04-23 23:41 -23.46362 -46.94971 31203 ft 437 kts 94°
2026-04-23 23:42 -23.47271 -46.88520 31196 ft 434 kts 106°
2026-04-23 23:42 -23.48797 -46.82470 31189 ft 418 kts 109°
2026-04-23 23:42 -23.49591 -46.79470 31188 ft 402 kts 109°
2026-04-23 23:43 -23.50309 -46.76735 31187 ft 391 kts 109°